| time (UTC) | temp C | wind direction | speed KPH | gust KPH | rain 1hr cm | rain 24hr cm | rain mn cm | humidity % | barometer mb |
| 20260503072021 | 13 | 36 | 6.4 | 11.3 | 0.00 | 0.00 | 0.00 | 55 | 1014.2 |
| 20260503071017 | 13 | 92 | 1.6 | 4.8 | 0.00 | 0.00 | 0.00 | 56 | 1014.2 |
| 20260503055030 | 13 | 26 | 4.8 | 8.0 | 0.00 | 0.00 | 0.00 | 57 | 1014.0 |
| 20260503054030 | 13 | 99 | 1.6 | 4.8 | 0.00 | 0.00 | 0.00 | 58 | 1014.0 |
| 20260503053030 | 12 | 76 | 3.2 | 4.8 | 0.00 | 0.00 | 0.00 | 55 | 1014.1 |
| 20260503052029 | 14 | 28 | 4.8 | 8.0 | 0.00 | 0.00 | 0.00 | 64 | 1014.2 |
| 20260503051028 | 16 | 94 | 1.6 | 4.8 | 0.00 | 0.00 | 0.00 | 62 | 1014.1 |
| 20260503050026 | 18 | 88 | 3.2 | 8.0 | 0.00 | 0.00 | 0.00 | 62 | 1014.2 |
| 20260503045025 | 19 | 209 | 1.6 | 3.2 | 0.00 | 0.00 | 0.00 | 36 | 1014.2 |
| 20260503044026 | 19 | 281 | 4.8 | 4.8 | 0.00 | 0.00 | 0.00 | 32 | 1014.0 |
| 20260503043026 | 19 | 298 | 6.4 | 8.0 | 0.00 | 0.00 | 0.00 | 32 | 1014.0 |
| 20260503042030 | 19 | 291 | 4.8 | 8.0 | 0.00 | 0.00 | 0.00 | 33 | 1013.9 |
| 20260503041017 | 19 | 287 | 6.4 | 8.0 | 0.00 | 0.00 | 0.00 | 33 | 1013.9 |
| 20260503040022 | 18 | 292 | 6.4 | 9.7 | 0.00 | 0.00 | 0.00 | 32 | 1013.9 |
| 20260503035024 | 19 | 286 | 4.8 | 9.7 | 0.00 | 0.00 | 0.00 | 32 | 1013.9 |
| 20260503034023 | 19 | 289 | 4.8 | 8.0 | 0.00 | 0.00 | 0.00 | 33 | 1013.7 |
| 20260503033026 | 20 | 283 | 4.8 | 8.0 | 0.00 | 0.00 | 0.00 | 33 | 1013.6 |
| 20260503032025 | 20 | 285 | 6.4 | 9.7 | 0.00 | 0.00 | 0.00 | 31 | 1013.6 |
| 20260503031105 | 20 | 284 | 6.4 | 9.7 | 0.00 | 0.00 | 0.00 | 31 | 1013.3 |
| 20260503030024 | 21 | 299 | 4.8 | 8.0 | 0.00 | 0.00 | 0.00 | 29 | 1013.3 |
| 20260503025023 | 21 | 301 | 4.8 | 4.8 | 0.00 | 0.00 | 0.00 | 29 | 1013.2 |
| 20260503024024 | 22 | 272 | 3.2 | 4.8 | 0.00 | 0.00 | 0.00 | 30 | 1013.4 |
| 20260503023025 | 22 | 271 | 4.8 | 9.7 | 0.00 | 0.00 | 0.00 | 31 | 1013.2 |
| 20260503022023 | 22 | 229 | 3.2 | 3.2 | 0.00 | 0.00 | 0.00 | 30 | 1013.2 |
| 20260503021024 | 23 | 226 | 1.6 | 3.2 | 0.00 | 0.00 | 0.00 | 30 | 1013.2 |
| 20260503020021 | 23 | 222 | 1.6 | 3.2 | 0.00 | 0.00 | 0.00 | 29 | 1013.2 |
| 20260503015024 | 23 | 0.0 | 0.0 | 0.00 | 0.00 | 0.00 | 28 | 1013.2 | |
| 20260503014022 | 23 | 212 | 0.0 | 1.6 | 0.00 | 0.00 | 0.00 | 31 | 1013.2 |
| 20260503013022 | 23 | 195 | 1.6 | 3.2 | 0.00 | 0.00 | 0.00 | 32 | 1013.2 |
| 20260503012024 | 23 | 117 | 1.6 | 1.6 | 0.00 | 0.00 | 0.00 | 31 | 1013.2 |
| 20260503011025 | 23 | 19 | 1.6 | 3.2 | 0.00 | 0.00 | 0.00 | 34 | 1013.2 |
| 20260503010044 | 23 | 38 | 3.2 | 4.8 | 0.00 | 0.00 | 0.00 | 34 | 1013.3 |
| 20260503005023 | 23 | 20 | 3.2 | 4.8 | 0.00 | 0.00 | 0.00 | 32 | 1013.6 |
| 20260503004025 | 24 | 29 | 4.8 | 9.7 | 0.00 | 0.00 | 0.00 | 32 | 1013.5 |
| 20260503003046 | 24 | 225 | 1.6 | 3.2 | 0.00 | 0.00 | 0.00 | 31 | 1013.6 |
| 20260503002045 | 24 | 242 | 3.2 | 4.8 | 0.00 | 0.00 | 0.00 | 28 | 1013.6 |
| 20260503001026 | 23 | 205 | 1.6 | 4.8 | 0.00 | 0.00 | 0.00 | 29 | 1013.6 |
| 20260503000027 | 23 | 322 | 3.2 | 12.9 | 0.00 | 0.00 | 0.00 | 32 | 1013.6 |
| 20260502235027 | 24 | 318 | 4.8 | 11.3 | 0.00 | 0.00 | 0.00 | 30 | 1013.6 |
| 20260502234027 | 24 | 7 | 4.8 | 11.3 | 0.00 | 0.00 | 0.00 | 30 | 1013.9 |
| 20260502233026 | 24 | 311 | 3.2 | 9.7 | 0.00 | 0.00 | 0.00 | 32 | 1013.9 |
| 20260502232027 | 24 | 99 | 3.2 | 11.3 | 0.00 | 0.00 | 0.00 | 30 | 1013.9 |
| 20260502231047 | 24 | 74 | 4.8 | 9.7 | 0.00 | 0.00 | 0.00 | 31 | 1013.9 |
| 20260502230028 | 24 | 83 | 1.6 | 11.3 | 0.00 | 0.00 | 0.00 | 30 | 1013.9 |
| 20260502225045 | 24 | 90 | 3.2 | 8.0 | 0.00 | 0.00 | 0.00 | 30 | 1014.3 |
| 20260502224024 | 24 | 85 | 3.2 | 11.3 | 0.00 | 0.00 | 0.00 | 28 | 1014.3 |
| 20260502223023 | 24 | 99 | 3.2 | 8.0 | 0.00 | 0.00 | 0.00 | 27 | 1014.6 |
| 20260502222024 | 24 | 48 | 4.8 | 16.1 | 0.00 | 0.00 | 0.00 | 24 | 1014.5 |
| 20260502221103 | 24 | 5 | 8.0 | 12.9 | 0.00 | 0.00 | 0.00 | 26 | 1014.7 |
| 20260502220023 | 24 | 34 | 4.8 | 8.0 | 0.00 | 0.00 | 0.00 | 23 | 1014.7 |
| 20260502215041 | 24 | 132 | 1.6 | 4.8 | 0.00 | 0.00 | 0.00 | 23 | 1014.7 |
| 20260502214031 | 24 | 23 | 6.4 | 12.9 | 0.00 | 0.00 | 0.00 | 24 | 1014.8 |
| 20260502213015 | 24 | 28 | 6.4 | 12.9 | 0.00 | 0.00 | 0.00 | 24 | 1015.0 |
| 20260502212030 | 24 | 22 | 6.4 | 12.9 | 0.00 | 0.00 | 0.00 | 25 | 1015.0 |
| 20260502211015 | 24 | 27 | 4.8 | 11.3 | 0.00 | 0.00 | 0.00 | 25 | 1015.0 |
| 20260502210030 | 24 | 29 | 4.8 | 9.7 | 0.00 | 0.00 | 0.00 | 27 | 1015.0 |
| 20260502205016 | 24 | 58 | 3.2 | 9.7 | 0.00 | 0.00 | 0.00 | 28 | 1015.0 |
| 20260502204016 | 23 | 166 | 3.2 | 8.0 | 0.00 | 0.00 | 0.00 | 31 | 1015.1 |
| 20260502203050 | 23 | 237 | 1.6 | 4.8 | 0.00 | 0.00 | 0.00 | 24 | 1015.2 |
| 20260502202051 | 23 | 24 | 3.2 | 11.3 | 0.00 | 0.00 | 0.00 | 28 | 1015.4 |
| 20260502201030 | 23 | 358 | 6.4 | 12.9 | 0.00 | 0.00 | 0.00 | 30 | 1015.4 |
| 20260502200030 | 24 | 8 | 3.2 | 9.7 | 0.00 | 0.00 | 0.00 | 26 | 1015.4 |
| 20260502195027 | 24 | 98 | 1.6 | 9.7 | 0.00 | 0.00 | 0.00 | 27 | 1015.4 |
| 20260502194028 | 23 | 47 | 4.8 | 9.7 | 0.00 | 0.00 | 0.00 | 22 | 1015.4 |
| 20260502193029 | 23 | 26 | 6.4 | 12.9 | 0.00 | 0.00 | 0.00 | 25 | 1015.5 |
| 20260502192027 | 23 | 60 | 3.2 | 11.3 | 0.00 | 0.00 | 0.00 | 24 | 1015.5 |
| 20260502191027 | 23 | 91 | 3.2 | 9.7 | 0.00 | 0.00 | 0.00 | 28 | 1015.8 |
| 20260502190026 | 22 | 68 | 3.2 | 8.0 | 0.00 | 0.00 | 0.00 | 27 | 1015.8 |
| 20260502185027 | 22 | 30 | 3.2 | 11.3 | 0.00 | 0.00 | 0.00 | 29 | 1015.8 |
| 20260502184048 | 22 | 39 | 4.8 | 9.7 | 0.00 | 0.00 | 0.00 | 29 | 1015.8 |
| 20260502183027 | 22 | 16 | 6.4 | 11.3 | 0.00 | 0.00 | 0.00 | 33 | 1015.8 |
| 20260502182108 | 22 | 51 | 4.8 | 9.7 | 0.00 | 0.00 | 0.00 | 35 | 1015.9 |
| 20260502181027 | 21 | 31 | 4.8 | 11.3 | 0.00 | 0.00 | 0.00 | 35 | 1015.8 |
| 20260502164026 | 18 | 72 | 3.2 | 11.3 | 0.00 | 0.00 | 0.00 | 47 | 1016.1 |
| 20260502163026 | 18 | 42 | 6.4 | 11.3 | 0.00 | 0.00 | 0.00 | 46 | 1016.1 |
| 20260502162024 | 17 | 39 | 6.4 | 14.5 | 0.00 | 0.00 | 0.00 | 47 | 1015.8 |
| 20260502161024 | 17 | 74 | 4.8 | 12.9 | 0.00 | 0.00 | 0.00 | 49 | 1015.8 |
| 20260502152041 | 14 | 42 | 6.4 | 12.9 | 0.00 | 0.00 | 0.00 | 56 | 1015.8 |
| 20260502151042 | 13 | 58 | 4.8 | 12.9 | 0.00 | 0.00 | 0.00 | 59 | 1015.8 |
| 20260502123024 | 10 | 26 | 12.9 | 16.1 | 0.00 | 0.00 | 0.00 | 68 | 1015.4 |
| 20260502122025 | 10 | 20 | 12.9 | 17.7 | 0.00 | 0.00 | 0.00 | 67 | 1015.4 |
| 20260502121025 | 10 | 23 | 16.1 | 20.9 | 0.00 | 0.00 | 0.00 | 66 | 1015.4 |
| 20260502115025 | 11 | 25 | 11.3 | 14.5 | 0.00 | 0.00 | 0.00 | 64 | 1015.4 |
| 20260502114025 | 12 | 23 | 11.3 | 16.1 | 0.00 | 0.00 | 0.00 | 60 | 1015.4 |
| 20260502113024 | 12 | 26 | 11.3 | 16.1 | 0.00 | 0.00 | 0.00 | 58 | 1015.4 |
| 20260502112025 | 12 | 6 | 11.3 | 14.5 | 0.00 | 0.00 | 0.00 | 51 | 1015.4 |
| 20260502111025 | 13 | 16 | 8.0 | 12.9 | 0.00 | 0.00 | 0.00 | 54 | 1015.4 |
| 20260502110025 | 12 | 16 | 11.3 | 16.1 | 0.00 | 0.00 | 0.00 | 53 | 1015.4 |
| 20260502105025 | 13 | 18 | 11.3 | 16.1 | 0.00 | 0.00 | 0.00 | 53 | 1015.4 |
| 20260502104024 | 13 | 22 | 11.3 | 22.5 | 0.00 | 0.00 | 0.00 | 54 | 1015.4 |
| 20260502103105 | 12 | 36 | 6.4 | 16.1 | 0.00 | 0.00 | 0.00 | 54 | 1015.4 |
| 20260502102025 | 12 | 23 | 8.0 | 12.9 | 0.00 | 0.00 | 0.00 | 51 | 1015.4 |
| 20260502101044 | 12 | 25 | 9.7 | 14.5 | 0.00 | 0.00 | 0.00 | 55 | 1015.4 |
| 20260502091025 | 10 | 360 | 11.3 | 14.5 | 0.00 | 0.00 | 0.00 | 62 | 1015.4 |